Flag for Chad Weather past 2 weeks in Ndjamena, Chad

Now
81 °F

Thunderstorms. Passing clouds.


Feels Like: 88 °F
Forecast: 82 / 105 °F
Wind: 12 mph from South

Location: Ndjamena

Current Time: Jul 8, 2015 at 6:02:52 AM

Latest Report: Jul 8, 2015 at 5:00 AM


Visibility: N/A

Pressure: 29.89 "Hg

Humidity: 94%

Dew point: 79 °F

Location of NdjamenaLocation

Historic Weather in Ndjamena — Graph

°F

Ndjamena temperature yesterday

Maximum temperature yesterday: 100 °F (at 2:00 PM)
Minimum temperature yesterday: 81 °F (at 4:00 AM)
Average temperature yesterday: 89 °F

Past Weeks' High & Low Weather Summary

 TemperatureHumidityPressure
High104 °F (Jun 23, 1:00 PM)100% (Jun 27, 12:00 AM)30.07 "Hg (Jun 27, 12:00 AM)
Low72 °F (Jun 26, 12:00 AM)35% (Jul 7, 2:00 PM)29.74 "Hg (Jun 29, 4:00 PM)
Average87 °F69%29.88 "Hg
* Reported Jun 23 4:00 AM — Jul 8 4:00 AM, Ndjamena, Weather by CustomWeather, © 2015

Note: Actual official high and low records may vary slightly from our data, if they occured in-between our weather recording intervals... More about our weather records

Advertising

Ndjamena weather history for previous 24 hours

 ConditionsComfort  
Time TempWeatherWind HumidityBarometerVisibility
4:00 AM
Wed, Jul 8
82 °FThunderstorms. Passing clouds.5 mph84%29.89 "HgN/A
3:00 AM84 °FClear.7 mph84%29.86 "Hg10 mi
2:00 AM84 °FClear.No wind84%29.86 "Hg10 mi
1:00 AM84 °FClear.No wind89%29.86 "Hg10 mi
12:00 AM84 °FClear.No wind84%29.86 "Hg10 mi
11:00 PM
Tue, Jul 7
86 °FClear.5 mph79%29.86 "Hg10 mi
10:00 PM84 °FThunderstorms. Passing clouds.3 mph84%29.86 "HgN/A
9:00 PM86 °FThunderstorms. Passing clouds.7 mph79%29.83 "Hg5 mi
8:00 PM88 °FThunderstorms. Passing clouds.7 mph75%29.83 "Hg5 mi
7:00 PM90 °FThunderstorms. Passing clouds.5 mph71%29.83 "Hg5 mi
6:00 PM91 °FThunderstorms. Broken clouds.No wind63%29.83 "Hg2 mi
5:00 PM93 °FThunderstorms. Scattered clouds.7 mph36%29.80 "Hg1 mi
4:00 PM100 °FScattered clouds.7 mph37%29.80 "Hg5 mi
3:00 PM100 °FScattered clouds.3 mph35%29.80 "HgN/A
2:00 PM100 °FScattered clouds.7 mph35%29.83 "HgN/A
1:00 PM99 °FScattered clouds.No wind39%29.86 "HgN/A
12:00 PM97 °FScattered clouds.7 mph60%29.89 "HgN/A
11:00 AM95 °FPassing clouds.7 mph63%29.92 "HgN/A
10:00 AM93 °FSunny.7 mph67%29.92 "Hg10 mi
9:00 AM90 °FSunny.5 mph75%29.92 "Hg10 mi
8:00 AM86 °FSunny.5 mph79%29.92 "Hg10 mi
7:00 AM86 °FSunny.7 mph75%29.92 "Hg10 mi
6:00 AM82 °FSunny.5 mph74%29.89 "Hg10 mi
Weather by CustomWeather, © 2015

See weather overviewHow to use our weather pages